Location: Forli
(44.2227°N, 12.0407°E)
Time: 14:36:42
(UTC+02:00)

PCSat - Pass Details

Date: 17 April 2026
Orbit: 781 x 790 km, 67.1° (Epoch: 18 May)

Event Time Altitude Azimuth Distance (km) Brightness Sun altitude
Rises 00:10:21 0° 331° (NNW) 3,294 13.8 -33.7°
Reaches altitude 10° 00:12:50 10° 335° (NNW) 2,361 12.8 -33.8°
Enters shadow 00:16:25 39° 358° (N) 1,171 10.8 -34.0°
